sat.trackr.live / text

‹ back to catalog

STARLINK-1551

NORAD 46075 · 2020-055BA

PAYLOAD ACTIVE UNKNOWN

§ Identity

Operator
Country
US
Launch date
2020-08-07
Launch site
AFETR
Launch vehicle
Mass (kg)
RCS (m²)

Purposes: comms

External: N2YO · Heavens-Above · Gunter

§ Orbital elements

Epoch: 2026-09-19T18:06:53.787744Z

Period
94.01 min
Inclination
53.1593°
Eccentricity
0.0001047
Mean motion
15.31701088 rev/d
Perigee alt
470.0 km
Apogee alt
471.5 km
Semi-major
6,848.9 km
B*
1.1984e-5
RAAN
278.5668°
Arg perigee
104.2725°
Mean anomaly
255.8393°
Rev number
33,896

§ Raw data

STARLINK-15511 46075U 20055BA  26262.75478921  .00000007  00000+0  11984-4 0  99982 46075  53.1593 278.5668 0001047 104.2725 255.8393 15.31701088338963

JSON: /api/v1/satellites/46075 · /tle

For live sub-satellite position, see the globe view (requires WebGL).

§ Visibility from observer

Set your observer location to see the next 7 days of passes ≥ 10°. The values pass through the URL so the page stays shareable.

No JS? Fill the form by hand. The geolocation button needs JavaScript.